Temp
-16 -16 -16 -16 -15 -15 -15 -15 -14 -14 -14 -14 -14 -13 -13 -13 -13 -12 -12 -12 -12 -12 -12 -12 -12 -12 -12 -12 -12 -12 -12 -12 -12 -11 -11 -11 -11 -11 -11 -11 -11 -11 -11
-16 -16 -16 -16 -16 -16 -15 -15 -15 -15 -14 -14 -14 -14 -13 -13 -13 -12 -12 -12 -12 -12 -12 -12 -12 -12 -12 -12 -12 -12 -12 -12 -12 -12 -11 -11 -11 -11 -11 -11 -11 -11 -11
-17 -16 -16 -16 -16 -16 -16 -15 -15 -15 -15 -14 -14 -14 -13 -13 -13 -13 -12 -12 -12 -12 -12 -13 -13 -12 -12 -12 -12 -12 -12 -12 -12 -11 -11 -11 -11 -11 -11 -11 -11 -11 -12
-17 -16 -16 -16 -16 -16 -16 -15 -15 -15 -15 -14 -14 -14 -13 -13 -13 -13 -13 -13 -13 -13 -13 -13 -13 -13 -13 -13 -12 -12 -12 -12 -12 -11 -11 -11 -11 -11 -12 -12 -12 -12 -12
-17 -17 -16 -16 -16 -16 -16 -15 -15 -15 -15 -14 -14 -14 -14 -13 -13 -13 -13 -13 -13 -13 -13 -13 -13 -13 -13 -13 -12 -12 -12 -12 -12 -12 -11 -11 -11 -11 -11 -11 -12 -12 -12
-17 -17 -17 -17 -16 -16 -16 -15 -15 -15 -15 -14 -14 -14 -14 -14 -14 -14 -13 -13 -13 -13 -13 -13 -13 -13 -13 -13 -13 -12 -12 -12 -12 -12 -12 -12 -11 -11 -12 -12 -12 -12 -12
-18 -17 -17 -17 -16 -16 -16 -16 -15 -15 -15 -14 -14 -14 -14 -14 -14 -14 -14 -13 -13 -13 -13 -13 -13 -13 -13 -13 -13 -13 -12 -12 -12 -12 -12 -12 -12 -12 -12 -12 -12 -13 -13
-19 -18 -17 -17 -17 -16 -16 -16 -16 -15 -15 -15 -14 -14 -14 -14 -14 -14 -14 -13 -13 -13 -13 -14 -14 -14 -14 -13 -13 -13 -13 -13 -13 -13 -12 -12 -12 -12 -12 -12 -13 -13 -14
-19 -19 -18 -18 -17 -17 -17 -16 -16 -15 -15 -15 -14 -14 -14 -14 -14 -14 -14 -14 -13 -13 -13 -14 -14 -14 -14 -14 -13 -13 -13 -13 -13 -13 -12 -12 -12 -12 -12 -12 -12 -13 -13
-20 -20 -19 -19 -18 -18 -17 -16 -16 -16 -15 -15 -15 -15 -15 -15 -14 -14 -14 -14 -14 -14 -14 -14 -14 -14 -14 -14 -14 -13 -13 -13 -13 -13 -13 -13 -12 -12 -13 -13 -12 -13 -13
-21 -21 -20 -20 -19 -19 -18 -17 -17 -17 -16 -16 -16 -16 -15 -15 -15 -15 -15 -14 -14 -14 -14 -14 -14 -14 -14 -14 -14 -14 -14 -14 -13 -13 -13 -13 -13 -13 -13 -13 -13 -13 -14
-22 -21 -21 -20 -20 -19 -19 -19 -18 -18 -17 -17 -17 -16 -16 -16 -16 -15 -15 -15 -15 -14 -15 -15 -15 -15 -14 -14 -14 -14 -14 -14 -14 -13 -13 -14 -14 -14 -14 -13 -13 -13 -14
-23 -22 -21 -21 -20 -20 -19 -19 -19 -19 -18 -18 -18 -17 -18 -17 -17 -16 -16 -16 -16 -16 -15 -15 -16 -15 -15 -15 -15 -15 -15 -14 -14 -14 -14 -14 -14 -14 -14 -14 -14 -14 -14
-23 -23 -22 -22 -22 -21 -21 -20 -20 -20 -20 -19 -20 -19 -19 -18 -18 -19 -18 -17 -17 -17 -17 -17 -17 -16 -16 -15 -15 -15 -15 -15 -15 -15 -15 -15 -15 -15 -15 -15 -15 -15 -15
-24 -23 -23 -23 -23 -22 -22 -23 -23 -23 -22 -22 -22 -21 -21 -20 -20 -21 -20 -19 -19 -19 -19 -18 -18 -17 -17 -16 -16 -16 -16 -15 -15 -15 -15 -15 -15 -16 -15 -16 -17 -17 -18
-24 -24 -23 -23 -23 -23 -23 -23 -24 -24 -23 -23 -21 -21 -22 -22 -22 -21 -21 -20 -20 -20 -19 -19 -18 -18 -18 -17 -17 -17 -16 -16 -16 -16 -16 -16 -16 -16 -16 -16 -18 -18 -18
-25 -25 -24 -23 -23 -23 -23 -23 -24 -24 -23 -23 -22 -22 -23 -22 -22 -22 -21 -21 -21 -21 -20 -19 -19 -19 -18 -18 -18 -17 -17 -17 -16 -16 -16 -16 -17 -17 -17 -17 -18 -18 -19
-26 -26 -25 -25 -25 -24 -24 -24 -24 -24 -24 -23 -23 -23 -23 -23 -23 -23 -22 -22 -22 -21 -21 -21 -20 -20 -19 -19 -19 -18 -18 -18 -18 -18 -18 -18 -18 -18 -18 -18 -18 -19 -20
-27 -27 -27 -26 -25 -25 -25 -25 -25 -25 -24 -24 -24 -23 -23 -24 -23 -23 -23 -23 -22 -22 -21 -21 -20 -20 -20 -20 -19 -19 -19 -19 -19 -19 -18 -18 -18 -19 -19 -19 -19 -19 -20
-28 -27 -27 -27 -26 -26 -26 -25 -25 -24 -24 -24 -24 -24 -23 -23 -23 -23 -23 -23 -23 -23 -22 -22 -21 -21 -20 -20 -20 -20 -20 -20 -20 -20 -19 -19 -19 -19 -19 -20 -20 -19 -20
-29 -28 -28 -28 -27 -27 -26 -26 -26 -26 -25 -25 -25 -24 -24 -24 -24 -24 -24 -23 -23 -23 -23 -22 -22 -21 -21 -20 -20 -20 -20 -20 -20 -20 -20 -20 -19 -20 -20 -20 -20 -21 -20
-30 -30 -29 -29 -28 -28 -27 -27 -26 -26 -25 -25 -25 -25 -25 -25 -24 -24 -24 -24 -23 -23 -23 -23 -22 -22 -21 -21 -21 -20 -20 -21 -20 -20 -20 -20 -20 -20 -20 -20 -20 -20 -20
-30 -30 -30 -30 -30 -29 -29 -28 -27 -27 -27 -26 -25 -25 -25 -25 -25 -24 -24 -24 -23 -23 -23 -23 -22 -22 -22 -21 -21 -21 -20 -21 -20 -20 -20 -20 -20 -20 -21 -20 -20 -20 -20
-31 -31 -31 -30 -30 -30 -30 -30 -29 -29 -28 -28 -27 -27 -26 -26 -25 -25 -24 -24 -24 -24 -23 -23 -23 -23 -23 -22 -22 -22 -21 -21 -21 -21 -21 -21 -21 -21 -21 -21 -21 -21 -22
-31 -31 -31 -31 -31 -31 -30 -30 -29 -29 -29 -29 -28 -28 -27 -27 -26 -26 -25 -25 -25 -24 -24 -23 -23 -23 -23 -22 -22 -22 -21 -21 -21 -21 -21 -22 -22 -21 -21 -22 -22 -22 -23
-32 -32 -31 -31 -31 -31 -31 -30 -30 -30 -29 -29 -29 -29 -29 -28 -27 -27 -26 -26 -26 -25 -25 -24 -24 -23 -24 -23 -23 -23 -22 -22 -22 -22 -22 -22 -22 -22 -22 -23 -24 -24 -24
Height
5705 5712 5719 5725 5731 5737 5742 5747 5751 5755 5759 5762 5765 5768 5771 5774 5776 5778 5780 5782 5783 5784 5785 5787 5789 5790 5791 5792 5794 5796 5798 5799 5801 5802 5802 5803 5804 5804 5805 5806 5806 5805 5805
5693 5699 5705 5712 5718 5724 5730 5735 5740 5744 5748 5751 5754 5757 5760 5763 5766 5768 5769 5771 5772 5773 5775 5776 5779 5780 5781 5782 5784 5787 5788 5789 5791 5793 5793 5794 5794 5794 5794 5795 5795 5794 5794
5679 5685 5691 5698 5704 5709 5715 5722 5727 5732 5736 5739 5743 5746 5749 5751 5754 5756 5758 5760 5762 5763 5765 5766 5768 5770 5771 5773 5775 5777 5778 5780 5781 5783 5784 5784 5785 5784 5784 5784 5783 5783 5782
5664 5670 5677 5683 5688 5694 5700 5707 5713 5718 5723 5727 5731 5733 5737 5739 5741 5744 5746 5749 5751 5753 5754 5756 5758 5760 5762 5763 5765 5767 5768 5770 5772 5772 5774 5774 5774 5774 5774 5773 5770 5770 5770
5649 5655 5661 5668 5674 5680 5686 5692 5698 5704 5709 5713 5717 5720 5723 5726 5729 5732 5734 5737 5740 5742 5744 5746 5749 5750 5752 5754 5756 5758 5759 5760 5761 5763 5764 5764 5764 5764 5763 5762 5761 5760 5758
5632 5640 5646 5652 5658 5664 5670 5676 5682 5688 5693 5699 5703 5707 5710 5713 5716 5720 5722 5725 5728 5730 5733 5735 5738 5741 5742 5744 5746 5748 5750 5751 5751 5753 5754 5754 5754 5753 5752 5751 5750 5750 5749
5616 5622 5629 5635 5642 5648 5654 5660 5667 5672 5678 5683 5688 5693 5697 5701 5704 5707 5710 5713 5716 5719 5722 5725 5728 5731 5732 5734 5736 5738 5739 5741 5742 5743 5744 5744 5744 5743 5742 5742 5741 5739 5737
5600 5607 5613 5619 5626 5632 5638 5644 5651 5656 5662 5667 5672 5678 5683 5688 5691 5694 5697 5701 5704 5708 5711 5713 5716 5719 5722 5724 5727 5728 5730 5731 5732 5733 5734 5734 5734 5733 5732 5731 5730 5728 5726
5584 5590 5597 5603 5609 5615 5621 5627 5634 5639 5645 5651 5656 5661 5667 5672 5676 5679 5683 5688 5692 5696 5698 5701 5704 5707 5710 5712 5715 5718 5719 5721 5722 5722 5722 5723 5723 5723 5722 5721 5718 5717 5715
5568 5574 5580 5586 5591 5597 5602 5609 5615 5622 5629 5634 5640 5644 5649 5654 5659 5664 5669 5674 5678 5682 5684 5687 5691 5695 5697 5700 5703 5705 5708 5710 5710 5710 5711 5712 5713 5712 5711 5709 5707 5706 5704
5552 5558 5563 5569 5575 5580 5585 5591 5597 5604 5611 5617 5624 5627 5633 5637 5643 5648 5653 5659 5663 5666 5670 5674 5677 5680 5684 5686 5690 5694 5696 5696 5698 5700 5701 5701 5701 5701 5700 5698 5697 5695 5693
5539 5543 5548 5554 5559 5565 5570 5574 5580 5586 5593 5599 5606 5612 5617 5620 5625 5631 5637 5642 5646 5651 5656 5659 5663 5666 5669 5674 5677 5680 5682 5684 5686 5689 5690 5690 5690 5689 5688 5687 5687 5684 5682
5526 5530 5534 5539 5544 5548 5554 5558 5564 5570 5575 5581 5588 5595 5600 5604 5609 5615 5619 5624 5630 5635 5639 5643 5647 5652 5656 5660 5664 5667 5668 5671 5674 5676 5677 5677 5677 5677 5677 5678 5676 5673 5672
5511 5517 5522 5526 5530 5533 5537 5542 5548 5554 5560 5564 5570 5577 5583 5590 5595 5597 5603 5607 5612 5618 5622 5626 5632 5637 5642 5645 5649 5652 5656 5658 5660 5662 5662 5664 5665 5666 5667 5667 5665 5663 5662
5496 5502 5507 5512 5517 5521 5524 5528 5534 5539 5545 5552 5559 5562 5567 5572 5577 5583 5588 5592 5596 5602 5604 5610 5616 5622 5627 5630 5633 5637 5640 5644 5646 5647 5648 5650 5652 5654 5655 5655 5654 5654 5654
5480 5486 5493 5497 5502 5508 5512 5516 5521 5526 5532 5539 5544 5549 5554 5559 5562 5568 5574 5578 5581 5586 5589 5597 5602 5607 5612 5615 5619 5622 5625 5628 5631 5633 5635 5637 5639 5640 5642 5644 5644 5645 5645
5463 5469 5476 5482 5487 5492 5497 5502 5508 5514 5519 5525 5529 5534 5539 5545 5547 5553 5558 5563 5567 5571 5577 5584 5588 5592 5596 5601 5604 5608 5611 5613 5616 5618 5621 5623 5625 5627 5629 5631 5633 5634 5635
5448 5453 5459 5465 5472 5477 5482 5487 5493 5498 5505 5510 5515 5521 5525 5529 5534 5538 5541 5547 5553 5556 5563 5568 5574 5577 5581 5585 5589 5593 5596 5599 5602 5605 5608 5610 5612 5614 5616 5619 5621 5623 5625
5433 5437 5443 5449 5455 5461 5466 5471 5478 5483 5488 5494 5499 5505 5511 5516 5519 5523 5527 5532 5538 5543 5548 5553 5559 5563 5567 5572 5576 5579 5582 5586 5590 5592 5595 5597 5599 5602 5605 5608 5610 5613 5615
5414 5420 5426 5432 5438 5444 5449 5455 5460 5467 5472 5478 5483 5490 5494 5501 5505 5509 5514 5519 5524 5528 5534 5538 5544 5549 5553 5557 5562 5565 5569 5572 5576 5580 5583 5586 5589 5592 5594 5597 5599 5602 5605
5394 5400 5406 5412 5418 5424 5430 5437 5442 5449 5455 5461 5467 5472 5478 5482 5487 5493 5499 5504 5509 5515 5520 5525 5530 5535 5540 5544 5548 5552 5556 5559 5562 5567 5571 5574 5577 5580 5583 5586 5590 5592 5592
5377 5381 5386 5390 5396 5402 5408 5415 5421 5428 5433 5441 5447 5454 5461 5466 5470 5476 5482 5489 5495 5500 5507 5511 5516 5521 5527 5531 5535 5535 5540 5545 5549 5552 5557 5561 5566 5568 5571 5574 5577 5580 5582
5364 5367 5370 5373 5376 5381 5386 5392 5398 5405 5411 5418 5426 5434 5440 5446 5454 5460 5466 5473 5479 5486 5492 5498 5502 5508 5513 5516 5520 5523 5528 5531 5535 5538 5542 5547 5550 5554 5559 5562 5564 5566 5568
5351 5353 5356 5359 5362 5365 5369 5373 5377 5383 5389 5397 5404 5412 5418 5425 5432 5442 5449 5456 5464 5471 5478 5484 5490 5494 5500 5505 5509 5514 5516 5518 5520 5523 5528 5534 5539 5542 5544 5550 5552 5554 5557
5334 5338 5342 5346 5349 5352 5356 5360 5363 5367 5371 5376 5383 5389 5396 5403 5411 5421 5429 5437 5445 5454 5461 5468 5474 5479 5486 5491 5495 5498 5505 5508 5511 5514 5518 5522 5527 5532 5533 5536 5539 5542 5544
5318 5321 5324 5329 5333 5337 5341 5345 5348 5352 5356 5361 5366 5371 5378 5384 5390 5399 5408 5417 5425 5434 5442 5450 5457 5464 5471 5476 5480 5484 5488 5493 5498 5502 5506 5508 5513 5516 5520 5523 5527 5530 5533
Wind_Speed
64 63 62 60 59 58 56 56 55 53 51 50 50 50 49 48 48 48 47 47 46 46 46 46 46 45 44 45 44 42 40 40 39 39 40 41 40 41 42 44 46 48 48
68 66 65 63 62 61 59 57 56 54 53 52 51 51 50 50 50 50 49 47 46 46 46 46 44 44 44 43 43 41 40 40 40 39 41 41 42 43 45 47 48 48 49
69 68 67 66 65 64 62 60 58 56 55 54 53 53 53 53 53 51 50 48 46 46 46 45 43 43 42 41 41 42 40 40 41 40 40 42 44 44 45 45 47 49 50
71 70 70 69 69 67 65 63 60 59 57 57 56 57 55 53 53 53 51 47 44 46 46 45 44 43 42 42 41 41 40 40 40 41 41 42 43 41 42 42 47 48 49
73 74 73 71 70 69 68 66 65 64 62 60 58 56 55 53 53 53 51 47 45 45 46 45 44 43 43 42 41 40 41 41 41 40 40 39 39 40 41 42 44 44 47
73 74 75 76 75 74 73 71 69 66 63 60 58 56 55 53 52 52 51 49 47 45 45 44 42 42 43 42 42 41 41 40 39 37 37 38 40 40 39 39 41 43 44
72 74 75 74 74 73 72 71 69 67 64 62 59 58 56 54 53 53 52 50 49 47 44 43 42 42 42 42 42 41 40 38 38 36 38 39 41 38 38 36 38 41 45
65 67 68 69 71 71 71 71 68 69 67 65 63 62 59 56 56 55 54 53 51 47 46 45 44 43 43 43 42 42 42 40 37 38 42 42 41 39 38 38 38 39 43
67 67 67 67 67 67 66 67 69 68 68 68 66 65 64 61 59 59 58 56 53 50 49 48 47 46 46 45 44 45 45 42 41 42 45 43 40 41 40 40 39 40 42
62 63 64 65 64 65 68 69 69 67 68 68 67 68 67 65 64 62 60 59 57 55 54 53 50 49 49 48 47 47 45 43 44 46 46 43 42 41 39 39 39 41 42
59 60 63 64 63 63 65 67 71 71 69 68 69 70 68 69 65 64 65 63 61 61 59 57 55 54 52 52 50 49 47 47 47 48 47 43 40 38 39 39 38 36 36
58 59 58 59 61 65 66 66 66 67 70 70 68 69 69 70 69 68 66 66 65 65 63 61 59 58 56 54 54 51 51 50 49 47 46 44 40 39 42 41 36 34 31
60 60 60 63 62 62 64 67 68 67 67 69 68 67 66 68 67 67 67 67 65 65 66 64 62 60 58 56 54 53 53 52 49 47 46 46 44 47 44 38 37 35 30
62 60 57 58 63 64 64 66 66 66 66 69 66 63 65 64 60 60 61 66 65 65 65 63 61 60 59 57 56 55 53 51 49 48 49 48 48 48 45 39 37 34 28
64 60 57 56 56 54 53 54 55 55 56 53 50 50 56 59 62 62 55 61 64 62 62 61 59 58 56 55 55 54 54 51 51 50 50 50 49 48 46 41 37 33 28
69 62 60 54 51 52 51 51 53 56 54 53 58 54 47 47 55 58 62 56 57 57 60 59 58 56 56 55 55 54 52 52 50 49 50 50 48 48 47 45 40 36 33
60 59 59 54 53 51 52 53 53 59 59 57 62 59 60 61 56 53 56 67 68 66 62 58 55 54 54 54 54 53 52 51 51 52 51 50 49 48 48 47 46 43 37
51 54 56 56 56 54 54 54 53 53 52 58 65 65 61 62 65 63 68 63 57 59 55 53 54 55 54 53 52 51 50 50 48 48 48 46 46 46 47 45 43 43 36
53 49 50 57 61 62 61 58 57 55 52 52 55 60 62 62 59 57 59 59 59 58 57 59 57 55 53 52 52 51 48 46 44 45 44 44 45 45 46 45 45 46 37
59 58 58 58 57 57 56 59 62 60 59 55 57 60 61 66 61 59 61 59 57 54 52 52 53 54 53 52 51 51 50 47 50 45 43 42 45 50 48 45 49 46 42
63 67 68 66 65 66 64 64 62 60 59 57 57 56 57 53 63 68 58 54 55 54 51 50 50 53 51 50 49 52 52 46 49 49 46 47 45 44 47 47 46 45 48
45 49 57 66 74 73 71 71 70 69 67 66 65 61 59 58 57 60 61 60 57 55 54 51 49 48 50 54 48 45 46 43 48 52 50 47 48 46 48 49 52 53 54
47 47 48 49 51 54 64 74 76 73 70 69 68 69 65 59 61 60 62 63 58 56 55 55 51 50 53 55 59 53 43 49 54 50 53 53 55 51 51 56 56 49 43
47 48 49 51 51 50 48 48 54 64 72 75 75 74 70 67 65 67 66 66 64 60 59 57 58 57 56 49 48 47 46 49 46 47 50 50 51 59 59 44 40 37 34
50 50 49 48 48 48 48 47 46 48 52 57 65 74 73 71 71 75 72 70 70 69 63 60 59 57 56 54 54 50 53 49 52 54 49 40 39 44 38 34 35 36 33
47 48 50 51 49 48 46 46 46 44 45 49 50 52 56 68 75 74 74 71 68 68 66 65 59 61 60 68 54 56 55 56 56 53 55 45 42 42 41 39 38 38 37
Wind_Direction
232 233 235 237 238 240 241 243 246 249 251 253 256 259 261 263 265 267 269 268 269 268 266 264 264 265 266 265 263 262 263 264 263 262 265 267 271 273 273 273 273 275 276
234 235 237 239 241 242 243 245 247 248 250 252 254 257 260 263 265 267 267 266 266 265 263 262 263 265 266 264 262 262 262 264 265 266 268 270 273 276 277 276 275 276 278
235 237 239 241 242 243 244 245 247 248 249 251 253 257 261 264 264 263 263 264 266 265 262 261 263 264 264 262 260 261 261 263 265 268 269 271 274 277 277 278 277 276 276
237 239 240 241 243 244 246 247 248 249 250 252 256 259 261 260 261 261 261 261 263 264 262 261 262 262 261 260 259 261 262 264 266 269 269 271 276 279 281 281 280 281 281
240 241 242 243 245 246 248 249 251 252 253 255 256 257 255 255 256 257 257 258 260 260 261 261 261 260 259 258 258 260 262 265 268 269 271 275 279 282 282 283 283 287 287
240 242 243 244 246 248 250 251 252 253 253 253 253 253 252 252 253 254 254 255 257 257 258 260 259 258 258 259 260 260 262 263 265 270 272 274 277 280 283 285 287 289 289
242 243 243 243 243 244 247 249 250 251 252 252 252 252 252 251 251 252 253 254 255 255 256 256 255 255 257 258 261 262 263 263 265 271 274 277 276 279 284 287 291 292 290
240 241 242 244 245 246 246 247 248 250 250 251 250 250 250 250 250 251 252 252 254 255 254 254 254 254 255 256 259 260 260 262 266 269 272 272 274 277 284 289 291 294 293
244 244 244 243 244 244 243 245 245 245 246 247 249 249 249 248 248 248 249 251 252 253 254 255 254 254 255 256 257 259 260 262 264 267 268 272 275 277 280 287 291 291 292
241 243 243 243 242 242 243 243 244 243 243 245 245 246 247 246 246 247 248 249 250 252 252 253 255 256 256 257 257 257 259 262 264 266 268 271 273 277 280 281 286 290 291
236 236 237 236 235 237 241 241 240 241 242 242 242 245 246 247 246 246 247 248 248 250 251 252 253 254 255 258 259 260 259 259 261 266 270 270 271 272 272 277 281 289 289
238 240 240 241 240 238 238 241 243 242 241 242 242 243 244 245 245 245 246 247 247 248 250 251 252 254 255 255 258 258 258 261 263 263 265 264 264 262 268 273 280 281 284
241 242 241 240 238 239 241 241 242 243 244 244 243 242 243 245 245 245 245 247 247 248 249 250 251 253 255 256 257 258 257 259 260 261 262 261 259 261 267 271 272 275 277
237 235 239 244 243 241 241 241 241 243 243 245 245 245 244 244 246 249 246 247 247 246 248 249 250 252 252 254 255 256 256 256 255 255 257 257 259 261 263 264 265 266 266
230 234 239 243 244 243 243 241 238 240 241 238 229 237 238 238 237 236 242 246 247 245 246 247 248 249 250 249 250 250 252 248 251 251 252 256 255 257 260 258 254 253 250
232 236 237 238 243 244 246 243 238 236 239 235 222 225 233 232 237 235 233 234 242 240 243 244 245 245 245 244 245 246 245 249 248 247 250 250 250 254 254 254 246 242 239
229 232 234 239 243 244 245 246 245 238 236 232 226 230 237 233 234 240 236 238 243 247 249 247 243 242 241 241 243 241 242 244 245 247 249 245 249 251 253 252 245 241 234
231 233 234 237 240 238 242 243 242 242 240 241 238 237 238 239 237 238 240 242 241 242 242 241 237 239 239 239 240 242 242 243 245 246 245 249 251 251 249 246 242 237 237
239 237 235 234 235 236 234 235 235 237 241 243 245 241 241 238 238 240 242 245 245 245 244 242 240 241 241 240 243 242 243 241 246 248 246 250 250 249 242 238 238 235 241
243 244 245 241 237 237 236 237 238 237 236 236 234 236 241 241 240 242 242 244 243 242 243 241 241 239 241 241 245 245 242 245 245 250 250 250 253 243 239 237 241 237 243
241 237 237 238 240 243 239 239 238 237 236 235 238 238 233 236 237 240 239 239 240 241 243 241 242 243 239 240 246 248 246 239 248 244 247 245 241 235 241 244 245 238 250
242 246 248 243 237 236 236 236 239 242 241 244 244 243 244 240 238 238 241 239 239 239 239 239 240 241 242 234 238 239 231 236 243 245 240 237 236 240 245 251 248 246 249
240 243 245 245 245 244 243 240 236 237 237 236 238 241 242 240 239 239 239 235 236 241 240 239 236 240 247 244 242 245 245 231 234 235 231 234 239 247 243 240 242 244 248
239 239 241 243 244 244 244 243 241 241 239 238 237 236 236 234 235 236 238 238 237 238 239 236 237 239 246 243 241 243 223 219 217 213 219 220 229 232 235 238 246 246 255
245 242 240 239 240 240 238 239 239 242 240 240 240 238 233 230 232 232 234 233 237 236 236 236 234 240 237 230 231 228 228 230 230 231 235 235 239 242 249 254 256 260 260
248 248 247 243 241 240 239 239 238 239 239 237 237 237 241 241 234 230 231 231 230 231 231 230 230 235 242 234 238 237 236 231 234 239 240 246 244 244 250 244 241 244 246